User: anonymous   Login
Location: Unspecified
(0.0000°N, 0.0000°E)
Time: 18:51:14
(UTC+00:00)
Language:

HODOYOSHI 1 - Orbit

View from above orbital plane
View from above orbital plane
View from above satellite
View from above satellite

Ground track
Ground track

The orbit data is extracted from the following two-line orbital elements,

1 40299U 14070B   19341.45894343  .00000432  00000-0  20953-4 0  9996
2 40299  97.3366  57.5432 0013592 151.1260 219.9709 15.23541387282426
Epoch (UTC): 07 December 2019 11:00:52
Eccentricity: 0.0013592
inclination: 97.3366°
perigee height: 486 km
apogee height: 504 km
right ascension of ascending node: 57.5432°
argument of perigee: 151.1260°
revolutions per day: 15.23541387
mean anomaly at epoch: 219.9709°
orbit number at epoch: 28242

The dashed part of the orbit path shows where the satellite is in the earth's shadow,  

DLR